Regional Weather Roundup
Issued by NWS Wakefield, VA

Home | Current Version | Previous Version | Text Only | Print | Product List | Glossary Off
Versions: 1 2 3 4 5 6 7 8 9 10 11 12 13 14 15 16 17 18 19 20 21 22 23 24 25 26 27

000
ASUS41 KAKQ 152215
RWRAKQ

REGIONAL WEATHER ROUNDUP
NATIONAL WEATHER SERVICE WAKEFIELD VA
500 PM EST FRI DEC 15 2017

Note: "fair" indicates few or no clouds below 12,000 feet with no
significant weather and/or obstructions to visibility. * = Denotes
station may not report precipitation (e.g., rain,snow,etc.),
thunder or fog.

VAZ042-051-052>054-056-152300-
NORTHERN VIRGINIA

CITY           SKY/WX    TMP DP  RH WIND       PRES   REMARKS
WASH NATIONAL  CLOUDY    29  26  89 N6        29.95F
DULLES         MOCLDY    26  24  92 CALM      29.93S
FORT BELVOIR   CLOUDY    29  24  83 CALM      29.94S
QUANTICO       CLOUDY    30  25  81 N3        29.97R
FREDERICKSBRG* MOCLDY    30  25  79 CALM      29.93F
STAFFORD*      CLOUDY    29  26  87 N3        29.98R
WARRENTON      CLOUDY    30  24  77 CALM      29.93S
CULPEPER*      CLOUDY    29  24  80 CALM      29.95S
MANASSAS*      CLOUDY    28  25  88 CALM      29.95S
LEESBURG*      CLEAR     28  27  93 CALM      29.93S
WINCHESTER     CLEAR     28  19  69 CALM      29.90S
FRONT ROYAL*   MOCLDY    30  21  69 MISG      29.89S
LURAY*         PTCLDY    30  25  80 SW3       29.89S
$$

VAZ048-049-060>072-079>083-152300-
CENTRAL AND SOUTH CENTRAL VIRGINIA

CITY           SKY/WX    TMP DP  RH WIND       PRES   REMARKS
RICHMOND       PTCLDY    36  19  50 NW5       29.94R
CHESTERFIELD*  NOT AVBL
PETERSBURG*    PTCLDY    34  19  55 W3        29.95R
HANOVER        PTCLDY    31  17  56 CALM      29.95R
TAPPAHANNOCK*  CLOUDY    32  18  55 CALM      29.94S
QUINTON*       FAIR      32  19  58 CALM      29.93S
CHARLOTTSVILLE PTCLDY    30  21  69 CALM      29.90S
GORDONSVILLE*  PTCLDY    30  23  73 CALM      29.92S
ORANGE*        CLOUDY    30  23  74 CALM      29.92S
LOUISA*        PTCLDY    27  18  69 CALM      29.96S
BUMPASS*       FAIR      29  19  65 SW8       29.92S
FARMVILLE*     CLOUDY    32  24  73 CALM      29.93R
CREWE*         FAIR      32  21  64 CALM      29.95R
FORT PICKETT*  NOT AVBL
CHASE CITY*    FAIR      34  24  65 CALM      29.95R
CLARKSVILLE*   FAIR      34  25  69 CALM      29.95R
SOUTH HILL*    PTCLDY    35  25  67 CALM      30.00S
LAWRENCEVILLE* FAIR      35  22  59 CALM      29.94S
EMPORIA*       CLOUDY    36  23  60 SW3       29.96S
$$

VAZ088>098-152300-
SOUTHEAST VIRGINIA

CITY           SKY/WX    TMP DP  RH WIND       PRES   REMARKS
NORFOLK        MOCLDY    41  31  67 VRB3      29.90R
VIRGINIA BEACH CLOUDY    41  30  65 NW13      29.88R
NORFOLK NAVAL  NOT AVBL
WEST POINT*    CLOUDY   N/A N/A N/A NW5       29.95R
SALUDA*        CLOUDY    33  26  74 NW9G17    29.91S
NEWPORT NEWS   CLOUDY    37  26  64 NW12      29.92R
LANGLEY AFB    CLOUDY    38  28  67 NW9       29.90R
FORT EUSTIS    CLOUDY    36  25  63 NW13      29.90R
WILLIAMSBURG*  MOCLDY    36  25  64 NW9G16    29.94R
HR EXEC AP*    MOCLDY    40  30  67 W8        29.91R
FRANKLIN*      PTCLDY    38  26  64 W8        29.95R
US460-WAKEFLD  PTCLDY    36  23  59 NW5       29.94R
$$

VAZ020-022-025-037-045-152300-
WEST CENTRAL AND SOUTHWEST VIRGINIA

CITY           SKY/WX    TMP DP  RH WIND       PRES   REMARKS
STAUNTON*      PTCLDY    33  19  57 W10       29.89R WCI  25
WAYNESBORO*    PTCLDY    32  22  65 W6        29.87S
HOT SPRINGS VA CLOUDY    22  16  76 W15G24    29.79R WCI   9
LYNCHBURG      PTCLDY    35  23  61 SW6       29.91S
DANVILLE       MOCLDY    35  25  66 SW6       29.96R
SOUTH BOSTON*  FAIR      36  22  58 SW3       29.96R
MARTINSVILLE   CLOUDY    37  22  56 W3        29.98R
ROANOKE        PTCLDY    35  19  52 NW18G30   29.95R WCI  24
BLACKSBURG     MOCLDY    30  19  64 W8        29.94S
DUBLIN*        MOCLDY    32  21  62 NW12      29.95R WCI  23
MARION*        PTCLDY    31  20  64 W18G28    29.94S WCI  19
HILLSVILLE*    CLOUDY    29  21  72 NW17G25   29.89S WCI  17
RICHLANDS*     FAIR      27  18  67 NW6       29.97R
WISE*          CLOUDY    28  21  74 W6        30.00R
ABINGDON*      CLOUDY    32  22  65 W10G17    30.00S WCI  24
$$

MDZ021>025-VAZ099-100-152300-
SOUTHERN MARYLAND AND THE DELMARVA PENINSULA

CITY           SKY/WX    TMP DP  RH WIND       PRES   REMARKS
PATUXENT RIVER CLOUDY    29  26  89 NW15      29.93S WCI  18
BAY BRIDGE APT LGT SNOW  28  27  93 MISG      29.94F VSB 1
LEONARDTOWN    CLOUDY    28  27  93 NW5       29.95S
DOVER          LGT SNOW  26  26 100 NW8       29.93S FOG
GEORGETOWN     LGT SNOW  28  23  81 N10       29.91R WCI  19
EASTON         SNOW      27  25  93 N5        29.97S VSB 1/4
CAMBRIDGE      CLOUDY    27  25  93 N10G17    29.93F FOG     WCI  17
SALISBURY      FLURRIES  31  26  82 NW15      29.89R WCI  20
OCEAN CITY     CLOUDY    37  34  89 N15G21    29.87R
WALLOPS ISLAND CLOUDY    38  32  79 NW18G24   29.88R
ACCOMACK*      CLOUDY    36  29  78 NW16G24   29.89R
$$

NCZ012>017-030>032-152300-
NORTH CENTRAL AND EASTERN NORTH CAROLINA

CITY           SKY/WX    TMP DP  RH WIND       PRES   REMARKS
ROANOKE RAPIDS FAIR      37  28  70 W7        29.95S
RALEIGH        CLOUDY    40  26  57 NW5       29.97R
ELIZABETH CITY PTCLDY    47  36  65 W14G25    29.89R
AHOSKIE*       CLOUDY    40  28  63 CALM      29.94R
EDENTON*       PTCLDY    48  34  58 NW12G18   29.92R
CURRITUCK*     PTCLDY    49  37  62 W10G17    29.89R
KILL DEVIL HLS PTCLDY    51  38  61 W13G22    29.86R
MANTEO         PTCLDY    53  38  56 NW12G17   29.88R
CAPE HATTERAS  CLOUDY    57  43  59 W12G21    29.89R
TARBORO*       NOT AVBL
GOLDSBORO      CLOUDY    49  33  55 NW9       29.92R
WASHINGTON     CLOUDY    50  36  57 NW9       29.92R
GREENVILLE     CLOUDY    46  32  57 NW6       29.95R
NEW BERN       CLOUDY    53  39  59 CALM      29.90R
WILMINGTON     CLOUDY    56  42  59 SW6       29.92R
$$

VAZ048-152300-
ELSEWHERE

CITY           SKY/WX    TMP DP  RH WIND       PRES   REMARKS
HARRISBURG PA  CLOUDY    25  22  88 CALM      29.91S
BALTIMORE      CLOUDY    26  25  96 CALM      29.93F FOG
ANNAPOLIS      LGT SNOW  28  28 100 NW8       29.94F FOG
ANDREWS AFB    FLURRIES  26  24  91 CALM      29.92F
PHILADELPHIA   LGT SNOW  25  22  88 VRB3      29.95F VSB 3/4
HENDERSON NC   PTCLDY    34  23  64 W3        29.94S
GREENSBORO     CLOUDY    41  27  57 W7        29.95R
ROCKY MOUNT    CLOUDY    42  30  62 NW8       29.95S
$$

VAZ100-152300-
MARINE

STATION/POSITION TIME  TEMP    WIND        PRES    WAVE   SWELL
                       AIR SEA DIR/SP/G            HT/PER HT/PER
                 (UTC) (F)     (DEG/KT/KT) (MB)    (FT/S) (FT/S)
BRANDYWINE LGT   2148           10/ 23/ 26   N/A
CAPE MAY NJ      2148   27 44  350/ 13/ 20 1012.3R
LEWES DE         2148   31 40  350/ 18/ 22 1012.7R
15NM E FENWICK I 2150   44 52   20/ 14/ 17 1010.4F   2/ 3   2/ 6
OCEAN-CITY-INLET 2148   38 44  350/ 15/ 18 1011.7R
WACHAPREAGUE VA  2148   36 39  290/  5/ 12 1011.8R
THOMAS POINT MD  2200   27 43  330/  6/  7   N/A
GOOSES REEF MD   2200   30 45   10/ 10/ 12 1014.1    2/ 3
COVE POINT MD    2148   29     350/ 14/ 19 1014.2R
SOLOMONS ISLAND  2148   29 45  330/ 11/ 14 1013.4S
BISHOPS HEAD MD  2148   29 35  330/ 11/ 13 1013.4R
PINEY POINT MD   2148          360/ 12/ 13   N/A
POTOMAC MD       2200   32 45  330/ 14/ 17 1012.9    1/ 2
CAMBRIDGE MD     2142   28 40              1014.1R
LEWISETTA VA     2148   32 40  350/  8/ 12 1013.5R
RAPPAHANNOCK LGT 2148          310/ 23/ 25 1012.8R
STINGRAY PT      2200   35 45  340/ 14/ 17 1012.8    2/ 3
YORK RVR RNG VA  2148   37     310/ 13/ 15 1013.2R
YORKTOWN VA      2148   37 46  300/ 10/ 14 1012.7R
JAMESTOWN VA     2200      44  330/ 14/ 16   N/A     1
DOMINION TERM VA 2148   39     320/ 17/ 20 1012.6R
KIPTOPEKE VA     2148      44  320/ 18/ 20   N/A
CAPE HENRY VA    2148   41     300/ 19/ 22   N/A
WILLOUBY STN VA  2148          310/ 16/ 18 1012.4R
S CRANEY ISL VA  2148   40     300/  8/ 12 1012.4R
CAPE HENRY BUOY  2130      53                N/A     4/ 4
1ST LANDING BUOY 2200   40 47  340/ 19/ 23 1012.0    2/ 3
CAPE CHARLES BUO 2151      51                N/A     4/ 4
64NM E OF VA BCH 2150   57 60  250/ 25/ 29 1009.1R   5/ 4   2/ 8
DUCK PIER NC     2148   51 54  290/ 16/ 20 1010.8R
44100 DUCK FRF   2145      55                N/A     4/ 3
44056 DUCK FRF   2130      55                N/A     3/ 5
OREGON INLET NC  2148          220/ 11/ 12   N/A
HATTERAS NC      2148   56 55  240/ 12/ 18 1011.7R
DIAMOND SHLS NC  2150   63 73  240/ 25/ 31 1011.7R   7/ 6
CAPE LOOKOUT NC  2200          240/ 11/ 14 1013.1R
$$




USA.gov is the U.S. government's official web portal to all federal, state and local government web resources and services.